Location: Bovenkerk
(52.2915°N, 4.8336°E)
Time: 18:08:31
(UTC+00:00)

STARLINK-1236 - Pass Details

Date: 09 April 2020
Orbit: 549 x 550 km, 53.0° (Epoch: 29 May)

Event Time Altitude Azimuth Distance (km) Brightness Sun altitude
Rises 19:12:55 0° 283° (WNW) 2,733 9.4 -7.1°
Reaches altitude 10° 19:15:09 10° 283° (WNW) 1,838 7.9 -7.4°
Maximum altitude 19:19:20 79° 197° (SSW) 570 3.7 -8.0°
Enters shadow 19:23:17 11° 111° (ESE) 1,749 5.5 -8.6°
